This is the latest recevied weather packets stored in our database for station/object KC9VAF. If no packets are shown the sender has not sent any weather packets the latest 10 day(s).
| Time | Temp. | Humidity | Pressure | Rain* | Wind** | Luminosity | Snow |
|---|---|---|---|---|---|---|---|
| 1778189699 | 10° C | 54% | 1011.3 hPa | 0 mm | - | 410 W/m² | - |
| 1778189395 | 10° C | 53% | 1011.1 hPa | 0 mm | - | 361 W/m² | - |
| 1778189091 | 10° C | 54% | 1011.4 hPa | 0 mm | - | 468 W/m² | - |
| 1778188788 | 10.56° C | 52% | 1011.6 hPa | 0 mm | - | 356 W/m² | - |
| 1778188485 | 10° C | 52% | 1011.4 hPa | 0 mm | - | 468 W/m² | - |
| 1778188181 | 10.56° C | 52% | 1011.4 hPa | 0 mm | - | 514 W/m² | - |
| 1778187879 | 11.67° C | 53% | 1011.3 hPa | 0 mm | - | 567 W/m² | - |
| 1778187575 | 11.11° C | 54% | 1011.3 hPa | 0 mm | - | 460 W/m² | - |
| 1778187272 | 10.56° C | 55% | 1011.4 hPa | 0 mm | - | 381 W/m² | - |
| 1778186968 | 10.56° C | 54% | 1011.3 hPa | 0 mm | - | 523 W/m² | - |
| 1778186665 | 10° C | 56% | 1011.5 hPa | 0 mm | - | 547 W/m² | - |
| 1778186363 | 10° C | 56% | 1011.5 hPa | 0 mm | - | 546 W/m² | - |
| 1778186061 | 10.56° C | 58% | 1011.5 hPa | 0 mm | - | 567 W/m² | - |
| 1778185757 | 10° C | 58% | 1011.7 hPa | 0 mm | - | 575 W/m² | - |
| 1778185453 | 10.56° C | 59% | 1011.9 hPa | 0 mm | - | 571 W/m² | - |
| 1778185149 | 10° C | 57% | 1012 hPa | 0 mm | - | 485 W/m² | - |
| 1778184844 | 8.89° C | 62% | 1012 hPa | 0 mm | - | 408 W/m² | - |
| 1778184541 | 9.44° C | 61% | 1012.3 hPa | 0 mm | - | 299 W/m² | - |
| 1778184237 | 9.44° C | 62% | 1012.6 hPa | 0 mm | - | 376 W/m² | - |
| 1778183933 | 9.44° C | 66% | 1012.6 hPa | 0 mm | - | 277 W/m² | - |
| 1778183630 | 8.89° C | 62% | 1012.8 hPa | 0 mm | - | 362 W/m² | - |
| 1778183328 | 9.44° C | 59% | 1012.8 hPa | 0 mm | - | 201 W/m² | - |
| 1778183024 | 8.89° C | 55% | 1012.7 hPa | 0 mm | - | 84 W/m² | - |
| 1778182721 | 8.89° C | 55% | 1012.8 hPa | 0 mm | - | 94 W/m² | - |
| 1778182418 | 8.89° C | 57% | 1012.7 hPa | 0 mm | - | 84 W/m² | - |
* Rain latest hour (hover to see other rain measurements)
** Current wind speed in m/s (hover to see current wind gust speed)